Flag for Spain

Past Weather in Santa María de la Alameda, Madrid, Spain — Yesterday and Last 2 Weeks

Now
88 °F

Passing clouds.


Feels Like: 85 °F
Forecast: 87 / 62 °F
Wind: 5 mph from West

Location: Madrid / Cuatro Vientos
Current Time: Aug 14, 2020 at 8:20:04 pm
Latest Report: Aug 14, 2020 at 8:00 pm
Visibility: N/A
Pressure29.95 "Hg
Humidity: 27%
Dew Point: 50 °F
Location of Santa María de la AlamedaLocation

Past Weather in Santa María de la Alameda — Graph

°F

Santa María de la Alameda Temperature Yesterday

Maximum temperature yesterday: 88 °F (at 6:30 pm)
Minimum temperature yesterday: 63 °F (at 7:00 am)
Average temperature yesterday: 76 °F

High & Low Weather Summary for the Past Weeks

 TemperatureHumidityPressure
High104 °F (Jul 30, 7:00 pm)100% (Aug 11, 12:14 pm)30.18 "Hg (Aug 11, 12:14 pm)
Low59 °F (Aug 12, 5:00 am)8% (Aug 1, 4:00 pm)29.89 "Hg (Jul 30, 7:00 pm)
Average82 °F38%30.03 "Hg
* Reported Jul 30 7:00 pm — Aug 14 7:00 pm, Santa María de la Alameda. Weather by CustomWeather, © 2020

Note: Actual official high and low records may vary slightly from our data, if they occured in-between our weather recording intervals... More about our weather records

Santa María de la Alameda Weather History for the Previous 24 Hours

Scroll right to see more
 ConditionsComfort  
Time TempWeatherWind HumidityBarometerVisibility
7:00 pm
Fri, Aug 14
91 °FPassing clouds.7 mph23%29.95 "HgN/A
6:30 pm90 °FPassing clouds.5 mph24%29.95 "HgN/A
6:00 pm91 °FPassing clouds.6 mph21%29.95 "HgN/A
5:30 pm90 °FPassing clouds.10 mph21%29.95 "HgN/A
5:00 pm91 °FPassing clouds.9 mph21%29.95 "HgN/A
4:30 pm91 °FPassing clouds.6 mph23%29.98 "HgN/A
4:00 pm88 °FPassing clouds.7 mph25%29.98 "HgN/A
3:30 pm91 °FPassing clouds.5 mph23%29.98 "HgN/A
3:00 pm88 °FPassing clouds.7 mph25%30.01 "HgN/A
2:30 pm90 °FPassing clouds.3 mph26%30.01 "HgN/A
2:00 pm88 °FSunny.7 mph29%30.01 "Hg10 mi
1:30 pm88 °FPassing clouds.5 mph27%30.01 "HgN/A
1:00 pm86 °FSunny.2 mph31%30.01 "Hg10 mi
12:30 pm86 °FPassing clouds.3 mph31%30.04 "HgN/A
12:00 pm84 °FSunny.2 mph35%30.04 "Hg10 mi
11:30 am82 °FSunny.2 mph35%30.04 "Hg10 mi
11:00 am79 °FPassing clouds.3 mph39%30.04 "HgN/A
10:30 am77 °FPassing clouds.3 mph44%30.04 "HgN/A
10:00 am75 °FPassing clouds.3 mph47%30.04 "HgN/A
9:30 am73 °FPassing clouds.3 mph53%30.04 "HgN/A
9:00 am72 °FPassing clouds.3 mph57%30.04 "HgN/A
8:30 am70 °FSunny.No wind60%30.04 "Hg10 mi
8:00 am66 °FPassing clouds.3 mph68%30.04 "HgN/A
7:30 am66 °FSunny.2 mph68%30.01 "Hg10 mi
7:00 am66 °FPassing clouds.3 mph73%30.01 "HgN/A
6:30 am68 °FMild.1 mph64%30.01 "Hg6 mi
6:00 am68 °FMild.1 mph64%30.01 "Hg5 mi
5:30 am68 °FMild.1 mph69%30.04 "Hg6 mi
5:00 am70 °FClear.2 mph64%30.04 "Hg10 mi
4:30 am68 °FClear.1 mph64%30.04 "Hg10 mi
4:00 am68 °FMild.No wind64%30.04 "Hg6 mi
3:30 am68 °FClear.1 mph64%30.04 "Hg10 mi
3:00 am70 °FClear.1 mph57%30.04 "Hg10 mi
2:30 am72 °FClear.1 mph57%30.04 "Hg10 mi
2:00 am70 °FClear.No wind57%30.04 "Hg10 mi
1:30 am73 °FClear.1 mph47%30.04 "Hg10 mi
1:00 am73 °FPassing clouds.3 mph50%30.04 "HgN/A
12:30 am72 °FClear.5 mph53%30.04 "Hg10 mi
12:00 am73 °FClear.1 mph50%30.04 "Hg10 mi
11:30 pm
Thu, Aug 13
73 °FClear.1 mph50%30.04 "Hg10 mi
11:00 pm73 °FMild.1 mph47%30.04 "Hg6 mi
10:30 pm73 °FMild.2 mph50%30.04 "Hg6 mi
10:00 pm77 °FClear.2 mph36%30.04 "Hg10 mi
9:30 pm79 °FClear.3 mph32%30.01 "Hg10 mi
9:00 pm82 °FSunny.6 mph26%30.01 "Hg10 mi
8:30 pm84 °FPassing clouds.8 mph25%30.01 "HgN/A
8:00 pm86 °FPassing clouds.8 mph27%30.01 "HgN/A
Weather by CustomWeather, © 2020

See weather overview